^^
Station Historical Data
Daily Summary for February 7, 2021 Units:  English    Metric   Both
Daily Weekly Monthly Yearly
  High: Low: Average:
Temperature: 17.3 °F 4.5 °F 9.5 °F
Dew Point: 14.3 °F -0.8 °F 2.8 °F
Humidity: 88% 61% 74%
Wind Speed: 8mph 3mph 5.6mph
Wind Gust: 13mph - -
Wind- - West
Pressure: 30.28 in 29.96 in -
Precipitation: 0.01 in    
 
 
Tabular Data for February 7, 2021
Time Temperature Dew Point Pressure Wind Wind Speed Wind Gust Humidity Rainfall Rate (Hourly) solar
00:00 17.3 °F 14.1 °F 29.97 in WSW 6 mph 7 mph 87% 0.00 in 0 W/m2
00:05 17.2 °F 14 °F 29.97 in WSW 6 mph 9 mph 87% 0.00 in 0 W/m2
00:10 17.2 °F 14.3 °F 29.96 in WSW 6 mph 6 mph 88% 0.00 in 0 W/m2
00:15 17.1 °F 13.9 °F 29.97 in WSW 6 mph 6 mph 87% 0.00 in 0 W/m2
00:20 16.8 °F 13.6 °F 29.97 in WNW 6 mph 8 mph 87% 0.00 in 0 W/m2
00:25 16.7 °F 13.5 °F 29.97 in SW 5 mph 8 mph 87% 0.00 in 0 W/m2
00:30 16.6 °F 13.4 °F 29.96 in NW 6 mph 6 mph 87% 0.00 in 0 W/m2
00:35 16.4 °F 13.2 °F 29.97 in West 5 mph 6 mph 87% 0.00 in 0 W/m2
00:40 16.3 °F 13.1 °F 29.96 in WSW 5 mph 5 mph 87% 0.00 in 0 W/m2
00:45 16.2 °F 13 °F 29.96 in West 5 mph 6 mph 87% 0.00 in 0 W/m2
00:50 16.1 °F 12.9 °F 29.96 in WNW 5 mph 5 mph 87% 0.00 in 0 W/m2
00:55 16 °F 12.6 °F 29.96 in WSW 6 mph 6 mph 86% 0.00 in 0 W/m2
01:00 15.9 °F 12.5 °F 29.96 in West 5 mph 5 mph 86% 0.00 in 0 W/m2
01:05 15.9 °F 12.5 °F 29.97 in WNW 6 mph 10 mph 86% 0.00 in 0 W/m2
01:10 15.9 °F 12.5 °F 29.96 in North 6 mph 6 mph 86% 0.00 in 0 W/m2
01:15 15.5 °F 12.1 °F 29.96 in WNW 5 mph 6 mph 86% 0.00 in 0 W/m2
01:20 15.3 °F 11.9 °F 29.96 in NW 5 mph 5 mph 86% 0.00 in 0 W/m2
01:25 15.2 °F 11.8 °F 29.96 in WNW 4 mph 5 mph 86% 0.00 in 0 W/m2
01:30 15.1 °F 11.7 °F 29.96 in West 4 mph 11 mph 86% 0.00 in 0 W/m2
01:35 15 °F 11.6 °F 29.96 in NW 4 mph 11 mph 86% 0.00 in 0 W/m2
01:40 14.9 °F 11.2 °F 29.96 in NW 4 mph 4 mph 85% 0.00 in 0 W/m2
01:45 14.7 °F 11 °F 29.96 in West 4 mph 4 mph 85% 0.00 in 0 W/m2
01:50 14.7 °F 10.7 °F 29.96 in WNW 4 mph 4 mph 84% 0.00 in 0 W/m2
01:55 14.7 °F 10.5 °F 29.96 in West 5 mph 9 mph 83% 0.00 in 0 W/m2
02:00 14.7 °F 10.5 °F 29.96 in West 6 mph 6 mph 83% 0.00 in 0 W/m2
02:05 14.6 °F 10.1 °F 29.96 in WNW 6 mph 8 mph 82% 0.00 in 0 W/m2
02:10 14.6 °F 9.8 °F 29.96 in WNW 5 mph 5 mph 81% 0.00 in 0 W/m2
02:15 14.6 °F 9.8 °F 29.96 in West 5 mph 5 mph 81% 0.00 in 0 W/m2
02:20 14.6 °F 9.8 °F 29.96 in WNW 5 mph 5 mph 81% 0.00 in 0 W/m2
02:25 14.4 °F 9.6 °F 29.96 in SW 5 mph 8 mph 81% 0.00 in 0 W/m2
02:30 14.2 °F 9.2 °F 29.96 in NNW 6 mph 6 mph 80% 0.00 in 0 W/m2
02:35 14 °F 8.7 °F 29.96 in West 6 mph 6 mph 79% 0.00 in 0 W/m2
02:40 13.8 °F 8.5 °F 29.97 in West 6 mph 6 mph 79% 0.00 in 0 W/m2
02:45 13.6 °F 8.6 °F 29.97 in NNW 6 mph 6 mph 80% 0.00 in 0 W/m2
02:50 13.4 °F 8.4 °F 29.96 in WNW 5 mph 8 mph 80% 0.00 in 0 W/m2
02:55 13 °F 7.7 °F 29.96 in WNW 5 mph 8 mph 79% 0.00 in 0 W/m2
03:00 12.7 °F 7.1 °F 29.96 in WSW 5 mph 5 mph 78% 0.00 in 0 W/m2
03:05 12.4 °F 6.6 °F 29.97 in WSW 5 mph 5 mph 77% 0.00 in 0 W/m2
03:10 12.1 °F 6.3 °F 29.97 in WNW 5 mph 5 mph 77% 0.00 in 0 W/m2
03:15 11.9 °F 6.1 °F 29.97 in WNW 5 mph 5 mph 77% 0.00 in 0 W/m2
03:20 11.7 °F 5.9 °F 29.97 in NW 5 mph 5 mph 77% 0.00 in 0 W/m2
03:25 11.4 °F 5.6 °F 29.97 in West 5 mph 6 mph 77% 0.00 in 0 W/m2
03:30 11.2 °F 5.7 °F 29.97 in WNW 5 mph 5 mph 78% 0.00 in 0 W/m2
03:35 11 °F 5.5 °F 29.97 in NW 5 mph 5 mph 78% 0.00 in 0 W/m2
03:40 10.9 °F 5.4 °F 29.97 in West 5 mph 9 mph 78% 0.00 in 0 W/m2
03:45 10.7 °F 5.2 °F 29.97 in West 5 mph 9 mph 78% 0.00 in 0 W/m2
03:50 10.6 °F 5.1 °F 29.97 in WNW 6 mph 6 mph 78% 0.00 in 0 W/m2
03:55 10.4 °F 5.2 °F 29.97 in WNW 6 mph 10 mph 79% 0.00 in 0 W/m2
04:00 10.3 °F 5.1 °F 29.98 in WNW 6 mph 6 mph 79% 0.00 in 0 W/m2
04:05 10.2 °F 5 °F 29.98 in WNW 6 mph 6 mph 79% 0.00 in 0 W/m2
04:10 10 °F 4.8 °F 29.98 in West 5 mph 8 mph 79% 0.00 in 0 W/m2
04:15 9.9 °F 4.7 °F 29.98 in NW 5 mph 9 mph 79% 0.00 in 0 W/m2
04:20 9.7 °F 4.5 °F 29.99 in West 6 mph 8 mph 79% 0.00 in 0 W/m2
04:25 9.5 °F 4.3 °F 29.99 in WNW 6 mph 8 mph 79% 0.00 in 0 W/m2
04:30 9.3 °F 3.8 °F 29.99 in WSW 6 mph 7 mph 78% 0.00 in 0 W/m2
04:35 9.1 °F 3.4 °F 29.99 in NNW 6 mph 7 mph 77% 0.00 in 0 W/m2
04:40 8.9 °F 3.2 °F 29.99 in WNW 5 mph 5 mph 77% 0.00 in 0 W/m2
04:45 8.7 °F 3 °F 29.99 in West 5 mph 5 mph 77% 0.00 in 0 W/m2
04:50 8.5 °F 3 °F 30.00 in NNW 4 mph 5 mph 78% 0.00 in 0 W/m2
04:55 8.5 °F 3 °F 30.00 in West 4 mph 5 mph 78% 0.00 in 0 W/m2
05:00 8.3 °F 2.9 °F 30.00 in WNW 5 mph 8 mph 78% 0.00 in 0 W/m2
05:05 8.3 °F 2.9 °F 30.00 in WNW 4 mph 8 mph 78% 0.00 in 0 W/m2
05:10 8.3 °F 2.9 °F 30.00 in WSW 5 mph 5 mph 78% 0.00 in 0 W/m2
05:15 8.2 °F 2.2 °F 30.01 in NW 5 mph 9 mph 76% 0.00 in 0 W/m2
05:20 8.1 °F 1.8 °F 30.01 in West 4 mph 6 mph 75% 0.00 in 0 W/m2
05:25 7.9 °F 1.3 °F 30.01 in NW 4 mph 6 mph 74% 0.00 in 0 W/m2
05:30 7.7 °F 1.1 °F 30.01 in West 5 mph 7 mph 74% 0.00 in 0 W/m2
05:35 7.5 °F 0.9 °F 30.01 in WNW 5 mph 7 mph 74% 0.00 in 0 W/m2
05:40 7.3 °F 0.7 °F 30.01 in WNW 5 mph 6 mph 74% 0.00 in 0 W/m2
05:45 7.2 °F 0.7 °F 30.02 in West 6 mph 7 mph 74% 0.00 in 0 W/m2
05:50 7 °F 0.5 °F 30.01 in WNW 6 mph 6 mph 74% 0.00 in 0 W/m2
05:55 6.9 °F 0.4 °F 30.02 in West 6 mph 6 mph 74% 0.00 in 0 W/m2
06:00 6.7 °F 0.5 °F 30.02 in West 5 mph 5 mph 75% 0.00 in 0 W/m2
06:05 6.5 °F 0.3 °F 30.02 in WNW 5 mph 5 mph 75% 0.00 in 0 W/m2
06:10 6.3 °F 0.1 °F 30.02 in WNW 6 mph 7 mph 75% 0.00 in 0 W/m2
06:15 6.2 °F 0 °F 30.03 in WNW 6 mph 7 mph 75% 0.00 in 0 W/m2
06:20 6.1 °F -0.1 °F 30.03 in West 5 mph 8 mph 75% 0.00 in 0 W/m2
06:25 5.9 °F -0.3 °F 30.03 in WNW 6 mph 8 mph 75% 0.00 in 0 W/m2
06:30 5.8 °F -0.4 °F 30.03 in West 6 mph 8 mph 75% 0.00 in 0 W/m2
06:35 5.7 °F -0.2 °F 30.04 in West 5 mph 8 mph 76% 0.00 in 0 W/m2
06:40 5.6 °F -0.3 °F 30.04 in WSW 5 mph 5 mph 76% 0.00 in 0 W/m2
06:45 5.4 °F -0.5 °F 30.04 in WSW 5 mph 5 mph 76% 0.00 in 0 W/m2
06:50 5.3 °F -0.6 °F 30.04 in West 5 mph 5 mph 76% 0.00 in 0 W/m2
06:55 5.3 °F -0.6 °F 30.04 in West 5 mph 7 mph 76% 0.00 in 0 W/m2
07:00 5.3 °F -0.3 °F 30.04 in WNW 5 mph 8 mph 77% 0.00 in 0 W/m2
07:05 5.2 °F -0.4 °F 30.04 in West 6 mph 13 mph 77% 0.00 in 0 W/m2
07:10 5.1 °F -0.5 °F 30.04 in WSW 5 mph 5 mph 77% 0.00 in 0 W/m2
07:15 5.1 °F -0.5 °F 30.04 in WNW 5 mph 5 mph 77% 0.00 in 0 W/m2
07:20 5 °F -0.4 °F 30.05 in West 5 mph 5 mph 78% 0.00 in 0 W/m2
07:25 4.9 °F -0.5 °F 30.05 in WSW 5 mph 5 mph 78% 0.00 in 0 W/m2
07:30 4.8 °F -0.6 °F 30.05 in SSW 5 mph 5 mph 78% 0.00 in 0 W/m2
07:35 4.7 °F -0.7 °F 30.05 in WNW 4 mph 5 mph 78% 0.00 in 0 W/m2
07:40 4.6 °F -0.8 °F 30.05 in WNW 4 mph 5 mph 78% 0.00 in 5 W/m2
07:45 4.6 °F -0.8 °F 30.05 in West 4 mph 5 mph 78% 0.00 in 7 W/m2
07:50 4.5 °F -0.6 °F 30.05 in WNW 4 mph 4 mph 79% 0.00 in 11 W/m2
07:55 4.5 °F -0.6 °F 30.06 in West 4 mph 6 mph 79% 0.00 in 14 W/m2
08:00 4.5 °F -0.8 °F 30.06 in West 4 mph 7 mph 78% 0.00 in 21 W/m2
08:05 4.5 °F -0.8 °F 30.06 in NW 4 mph 7 mph 78% 0.00 in 28 W/m2
08:10 4.5 °F -0.6 °F 30.07 in West 5 mph 7 mph 79% 0.00 in 30 W/m2
08:15 4.6 °F -0.5 °F 30.07 in WSW 6 mph 7 mph 79% 0.00 in 30 W/m2
08:20 4.7 °F -0.4 °F 30.07 in WSW 5 mph 5 mph 79% 0.00 in 26 W/m2
08:25 4.8 °F -0.6 °F 30.07 in WNW 5 mph 7 mph 78% 0.00 in 47 W/m2
08:30 4.9 °F -0.5 °F 30.07 in West 5 mph 5 mph 78% 0.00 in 72 W/m2
08:35 5.1 °F -0.3 °F 30.08 in WNW 5 mph 5 mph 78% 0.00 in 53 W/m2
08:40 5.1 °F -0.3 °F 30.08 in NW 6 mph 13 mph 78% 0.00 in 47 W/m2
08:45 5.3 °F -0.1 °F 30.08 in WNW 6 mph 13 mph 78% 0.00 in 62 W/m2
08:50 5.4 °F 0 °F 30.08 in West 6 mph 10 mph 78% 0.00 in 88 W/m2
08:55 5.5 °F 0.1 °F 30.08 in WSW 6 mph 10 mph 78% 0.00 in 97 W/m2
09:00 5.6 °F 0.2 °F 30.08 in SW 6 mph 6 mph 78% 0.00 in 40 W/m2
09:05 5.8 °F 0.4 °F 30.09 in SSW 5 mph 6 mph 78% 0.00 in 81 W/m2
09:10 5.9 °F 0.2 °F 30.09 in West 5 mph 6 mph 77% 0.00 in 118 W/m2
09:15 6 °F 0.3 °F 30.09 in West 5 mph 12 mph 77% 0.00 in 100 W/m2
09:20 6 °F 0.3 °F 30.09 in West 6 mph 6 mph 77% 0.00 in 93 W/m2
09:25 6.2 °F 0.3 °F 30.09 in SW 6 mph 6 mph 76% 0.00 in 195 W/m2
09:30 6.5 °F 0.5 °F 30.09 in WSW 6 mph 6 mph 76% 0.00 in 232 W/m2
09:35 6.5 °F 0.5 °F 30.09 in NW 6 mph 8 mph 76% 0.00 in 151 W/m2
09:40 6.8 °F 0.6 °F 30.10 in NW 7 mph 9 mph 75% 0.00 in 95 W/m2
09:45 6.9 °F 0.6 °F 30.10 in WNW 7 mph 13 mph 75% 0.00 in 148 W/m2
09:50 7 °F 0.5 °F 30.10 in WNW 7 mph 11 mph 74% 0.00 in 155 W/m2
09:55 7.4 °F 0.8 °F 30.10 in West 6 mph 11 mph 74% 0.00 in 142 W/m2
10:00 7.4 °F 0.8 °F 30.10 in West 6 mph 9 mph 74% 0.00 in 248 W/m2
10:05 7.3 °F 1 °F 30.10 in SW 6 mph 9 mph 75% 0.00 in 74 W/m2
10:10 7.4 °F 1.7 °F 30.10 in West 6 mph 6 mph 77% 0.00 in 98 W/m2
10:15 7.7 °F 1.7 °F 30.10 in WSW 5 mph 8 mph 76% 0.00 in 118 W/m2
10:20 7.7 °F 1.4 °F 30.10 in NW 5 mph 5 mph 75% 0.00 in 283 W/m2
10:25 7.7 °F 1.4 °F 30.10 in WNW 6 mph 6 mph 75% 0.00 in 176 W/m2
10:30 7.7 °F 1.4 °F 30.10 in SW 5 mph 7 mph 75% 0.00 in 207 W/m2
10:35 7.4 °F 0.8 °F 30.11 in SW 5 mph 7 mph 74% 0.00 in 174 W/m2
10:40 7.4 °F 0.8 °F 30.11 in West 6 mph 12 mph 74% 0.00 in 141 W/m2
10:45 7.6 °F 1 °F 30.11 in WSW 6 mph 12 mph 74% 0.00 in 288 W/m2
10:50 7.8 °F 0.9 °F 30.11 in West 6 mph 6 mph 73% 0.00 in 195 W/m2
10:55 8 °F 1.4 °F 30.11 in SSW 6 mph 6 mph 74% 0.00 in 165 W/m2
11:00 8.3 °F 1.7 °F 30.11 in SW 6 mph 11 mph 74% 0.00 in 206 W/m2
11:05 8.3 °F 1.1 °F 30.11 in West 6 mph 11 mph 72% 0.00 in 169 W/m2
11:10 8.3 °F 1.4 °F 30.12 in NW 6 mph 7 mph 73% 0.00 in 283 W/m2
11:15 8.6 °F 1.4 °F 30.12 in WSW 6 mph 8 mph 72% 0.00 in 336 W/m2
11:20 8.7 °F 1.5 °F 30.12 in NW 6 mph 9 mph 72% 0.00 in 478 W/m2
11:25 8.4 °F 1.2 °F 30.12 in West 6 mph 11 mph 72% 0.00 in 360 W/m2
11:30 8.7 °F 1.2 °F 30.12 in WSW 6 mph 6 mph 71% 0.00 in 411 W/m2
11:35 8.6 °F 1.1 °F 30.12 in SW 6 mph 6 mph 71% 0.00 in 480 W/m2
11:40 8.9 °F 1.7 °F 30.12 in West 6 mph 6 mph 72% 0.00 in 513 W/m2
11:45 8.9 °F 1.7 °F 30.12 in WSW 6 mph 6 mph 72% 0.00 in 520 W/m2
11:50 8.9 °F 1.1 °F 30.12 in WSW 7 mph 10 mph 70% 0.00 in 506 W/m2
11:55 8.8 °F 1.3 °F 30.12 in SSW 8 mph 10 mph 71% 0.00 in 529 W/m2
12:00 9.2 °F 1.4 °F 30.12 in West 8 mph 9 mph 70% 0.00 in 524 W/m2
12:05 9.6 °F 2.1 °F 30.12 in WSW 8 mph 9 mph 71% 0.00 in 538 W/m2
12:10 9.6 °F 1.8 °F 30.12 in West 7 mph 7 mph 70% 0.00 in 541 W/m2
12:15 9.6 °F 1.5 °F 30.12 in WSW 6 mph 8 mph 69% 0.00 in 547 W/m2
12:20 9.7 °F 1.2 °F 30.12 in West 7 mph 9 mph 68% 0.00 in 548 W/m2
12:25 9.6 °F 1.5 °F 30.12 in WNW 7 mph 9 mph 69% 0.00 in 552 W/m2
12:30 9.9 °F 1.8 °F 30.12 in West 7 mph 7 mph 69% 0.00 in 554 W/m2
12:35 9.9 °F 1.4 °F 30.11 in West 6 mph 7 mph 68% 0.00 in 554 W/m2
12:40 10.3 °F 2.1 °F 30.11 in WSW 7 mph 7 mph 69% 0.00 in 555 W/m2
12:45 10.3 °F 2.1 °F 30.11 in SW 6 mph 7 mph 69% 0.00 in 557 W/m2
12:50 10.2 °F 2.4 °F 30.11 in South 6 mph 6 mph 70% 0.00 in 557 W/m2
12:55 10.5 °F 2.3 °F 30.11 in SW 7 mph 7 mph 69% 0.00 in 557 W/m2
13:00 10.8 °F 2.6 °F 30.11 in WSW 7 mph 9 mph 69% 0.00 in 557 W/m2
13:05 10.7 °F 2.8 °F 30.11 in WSW 7 mph 9 mph 70% 0.00 in 557 W/m2
13:10 10.8 °F 2.9 °F 30.11 in WSW 7 mph 7 mph 70% 0.00 in 555 W/m2
13:15 11.3 °F 2.1 °F 30.11 in WSW 7 mph 10 mph 66% 0.00 in 555 W/m2
13:20 11.6 °F 2.8 °F 30.11 in West 7 mph 11 mph 67% 0.00 in 555 W/m2
13:25 11.8 °F 2.3 °F 30.11 in West 7 mph 11 mph 65% 0.00 in 552 W/m2
13:30 11.9 °F 2.7 °F 30.11 in WSW 7 mph 8 mph 66% 0.00 in 548 W/m2
13:35 12 °F 2.5 °F 30.11 in West 6 mph 8 mph 65% 0.00 in 510 W/m2
13:40 12.3 °F 1.4 °F 30.11 in West 7 mph 7 mph 61% 0.00 in 408 W/m2
13:45 12.2 °F 1.7 °F 30.11 in WSW 6 mph 7 mph 62% 0.00 in 541 W/m2
13:50 12.7 °F 2.8 °F 30.11 in SW 5 mph 10 mph 64% 0.00 in 469 W/m2
13:55 12.4 °F 1.5 °F 30.11 in SW 6 mph 10 mph 61% 0.00 in 533 W/m2
14:00 12.4 °F 2.5 °F 30.11 in WNW 6 mph 9 mph 64% 0.00 in 526 W/m2
14:05 12.4 °F 2.2 °F 30.11 in West 6 mph 9 mph 63% 0.00 in 522 W/m2
14:10 12.5 °F 1.9 °F 30.11 in NW 7 mph 7 mph 62% 0.00 in 517 W/m2
14:15 12.6 °F 1.7 °F 30.11 in West 6 mph 9 mph 61% 0.00 in 504 W/m2
14:20 12.3 °F 1.7 °F 30.11 in West 6 mph 6 mph 62% 0.00 in 425 W/m2
14:25 12.3 °F 2.8 °F 30.11 in West 7 mph 7 mph 65% 0.00 in 468 W/m2
14:30 12.5 °F 2.3 °F 30.11 in WSW 7 mph 7 mph 63% 0.00 in 320 W/m2
14:35 12.4 °F 2.9 °F 30.11 in WSW 7 mph 8 mph 65% 0.00 in 401 W/m2
14:40 12.3 °F 2.1 °F 30.11 in West 7 mph 7 mph 63% 0.00 in 471 W/m2
14:45 12.2 °F 3 °F 30.11 in SW 7 mph 7 mph 66% 0.00 in 417 W/m2
14:50 12.3 °F 2.8 °F 30.11 in WSW 7 mph 10 mph 65% 0.00 in 452 W/m2
14:55 12.1 °F 2.2 °F 30.11 in WSW 7 mph 10 mph 64% 0.00 in 392 W/m2
15:00 12.1 °F 2.9 °F 30.11 in WSW 6 mph 6 mph 66% 0.00 in 438 W/m2
15:05 11.8 °F 2.6 °F 30.11 in WSW 6 mph 6 mph 66% 0.00 in 429 W/m2
15:10 12.3 °F 3.1 °F 30.11 in West 7 mph 7 mph 66% 0.00 in 418 W/m2
15:15 11.9 °F 3.4 °F 30.11 in WNW 6 mph 7 mph 68% 0.00 in 410 W/m2
15:20 12.1 °F 3.2 °F 30.12 in SW 6 mph 6 mph 67% 0.00 in 285 W/m2
15:25 11.9 °F 3.4 °F 30.12 in West 6 mph 6 mph 68% 0.00 in 236 W/m2
15:30 12.2 °F 3.3 °F 30.12 in WSW 6 mph 7 mph 67% 0.00 in 352 W/m2
15:35 12.4 °F 2.9 °F 30.12 in WSW 6 mph 11 mph 65% 0.00 in 169 W/m2
15:40 11.8 °F 2.9 °F 30.12 in SW 7 mph 7 mph 67% 0.00 in 325 W/m2
15:45 12 °F 2.8 °F 30.12 in WNW 6 mph 7 mph 66% 0.00 in 295 W/m2
15:50 12.1 °F 3.6 °F 30.12 in WSW 6 mph 7 mph 68% 0.00 in 214 W/m2
15:55 12.5 °F 2.3 °F 30.13 in West 7 mph 8 mph 63% 0.00 in 302 W/m2
16:00 12.4 °F 2.2 °F 30.12 in SW 7 mph 7 mph 63% 0.00 in 288 W/m2
16:05 12.6 °F 3.1 °F 30.13 in West 6 mph 8 mph 65% 0.00 in 167 W/m2
16:10 12.4 °F 2.9 °F 30.13 in WSW 6 mph 6 mph 65% 0.00 in 274 W/m2
16:15 11.8 °F 2.6 °F 30.13 in WSW 6 mph 11 mph 66% 0.00 in 264 W/m2
16:20 11.6 °F 3.1 °F 30.13 in West 5 mph 7 mph 68% 0.00 in 250 W/m2
16:25 11.3 °F 3.1 °F 30.14 in West 6 mph 7 mph 69% 0.00 in 239 W/m2
16:30 11.3 °F 3.1 °F 30.14 in SSE 6 mph 6 mph 69% 0.00 in 195 W/m2
16:35 11.2 °F 3 °F 30.14 in SW 6 mph 6 mph 69% 0.00 in 190 W/m2
16:40 10.8 °F 3.2 °F 30.14 in WSW 6 mph 9 mph 71% 0.00 in 197 W/m2
16:45 10.4 °F 3.5 °F 30.15 in NW 6 mph 9 mph 73% 0.00 in 181 W/m2
16:50 10.2 °F 3.3 °F 30.15 in West 6 mph 6 mph 73% 0.00 in 162 W/m2
16:55 10.2 °F 3.6 °F 30.15 in SW 6 mph 6 mph 74% 0.00 in 151 W/m2
17:00 10.2 °F 3.6 °F 30.15 in West 6 mph 8 mph 74% 0.00 in 116 W/m2
17:05 10 °F 3.4 °F 30.15 in SSW 7 mph 8 mph 74% 0.00 in 72 W/m2
17:10 10 °F 3.1 °F 30.15 in West 7 mph 7 mph 73% 0.00 in 53 W/m2
17:15 10 °F 2.8 °F 30.15 in WSW 7 mph 7 mph 72% 0.00 in 40 W/m2
17:20 9.9 °F 3 °F 30.15 in WSW 6 mph 10 mph 73% 0.00 in 40 W/m2
17:25 9.7 °F 2.8 °F 30.16 in WSW 7 mph 10 mph 73% 0.00 in 33 W/m2
17:30 9.6 °F 2.4 °F 30.16 in SSW 8 mph 8 mph 72% 0.00 in 35 W/m2
17:35 9.6 °F 2.4 °F 30.16 in West 7 mph 10 mph 72% 0.00 in 30 W/m2
17:40 9.5 °F 2.3 °F 30.16 in WSW 6 mph 6 mph 72% 0.00 in 18 W/m2
17:45 9.4 °F 2.2 °F 30.16 in SW 5 mph 6 mph 72% 0.00 in 9 W/m2
17:50 9.4 °F 1.9 °F 30.16 in WSW 5 mph 5 mph 71% 0.00 in 7 W/m2
17:55 9.4 °F 1.9 °F 30.16 in WSW 6 mph 8 mph 71% 0.00 in 0 W/m2
18:00 9.5 °F 1.7 °F 30.16 in WSW 6 mph 6 mph 70% 0.00 in 0 W/m2
18:05 9.6 °F 1.8 °F 30.16 in SW 6 mph 6 mph 70% 0.00 in 0 W/m2
18:10 9.5 °F 2 °F 30.16 in WSW 5 mph 7 mph 71% 0.00 in 0 W/m2
18:15 9.4 °F 1.9 °F 30.17 in SW 5 mph 10 mph 71% 0.00 in 0 W/m2
18:20 9.3 °F 1.8 °F 30.17 in WNW 5 mph 5 mph 71% 0.00 in 0 W/m2
18:25 9.4 °F 1.9 °F 30.16 in West 5 mph 5 mph 71% 0.00 in 0 W/m2
18:30 9.4 °F 1.6 °F 30.17 in West 5 mph 8 mph 70% 0.00 in 0 W/m2
18:35 9.5 °F 1.4 °F 30.17 in West 5 mph 8 mph 69% 0.00 in 0 W/m2
18:40 9.5 °F 1.4 °F 30.17 in West 6 mph 9 mph 69% 0.00 in 0 W/m2
18:45 9.5 °F 1.4 °F 30.17 in West 6 mph 9 mph 69% 0.00 in 0 W/m2
18:50 9.4 °F 1.3 °F 30.18 in West 5 mph 5 mph 69% 0.00 in 0 W/m2
18:55 9.4 °F 1.6 °F 30.17 in West 5 mph 8 mph 70% 0.00 in 0 W/m2
19:00 9.3 °F 1.2 °F 30.17 in WSW 6 mph 10 mph 69% 0.00 in 0 W/m2
19:05 9.2 °F 1.1 °F 30.17 in West 5 mph 10 mph 69% 0.00 in 0 W/m2
19:10 9.2 °F 1.4 °F 30.18 in WNW 5 mph 8 mph 70% 0.00 in 0 W/m2
19:15 9.1 °F 1 °F 30.18 in West 5 mph 8 mph 69% 0.00 in 0 W/m2
19:20 9.1 °F 1.3 °F 30.18 in NW 5 mph 10 mph 70% 0.00 in 0 W/m2
19:25 9.1 °F 1 °F 30.18 in West 6 mph 10 mph 69% 0.00 in 0 W/m2
19:30 8.9 °F 1.1 °F 30.18 in WNW 6 mph 6 mph 70% 0.00 in 0 W/m2
19:35 8.9 °F 1.1 °F 30.18 in West 5 mph 6 mph 70% 0.00 in 0 W/m2
19:40 8.7 °F 1.2 °F 30.19 in WSW 5 mph 8 mph 71% 0.00 in 0 W/m2
19:45 8.6 °F 1.1 °F 30.19 in West 5 mph 8 mph 71% 0.00 in 0 W/m2
19:50 8.7 °F 1.2 °F 30.19 in West 5 mph 5 mph 71% 0.00 in 0 W/m2
19:55 8.7 °F 1.2 °F 30.20 in WSW 5 mph 5 mph 71% 0.00 in 0 W/m2
20:00 8.7 °F 1.2 °F 30.20 in WNW 5 mph 5 mph 71% 0.00 in 0 W/m2
20:05 8.5 °F 1 °F 30.21 in WNW 5 mph 7 mph 71% 0.00 in 0 W/m2
20:10 8.7 °F 0.9 °F 30.21 in WSW 6 mph 9 mph 70% 0.00 in 0 W/m2
20:15 8.7 °F 0.6 °F 30.21 in West 7 mph 9 mph 69% 0.00 in 0 W/m2
20:20 8.5 °F 0.7 °F 30.22 in West 6 mph 7 mph 70% 0.00 in 0 W/m2
20:25 8.5 °F 1 °F 30.22 in SW 6 mph 7 mph 71% 0.00 in 0 W/m2
20:30 8.5 °F 1 °F 30.23 in WSW 7 mph 11 mph 71% 0.00 in 0 W/m2
20:35 8.5 °F 0.7 °F 30.23 in WNW 6 mph 11 mph 70% 0.00 in 0 W/m2
20:40 8.4 °F 0.6 °F 30.23 in WSW 6 mph 9 mph 70% 0.00 in 0 W/m2
20:45 8.3 °F 0.5 °F 30.23 in West 7 mph 9 mph 70% 0.00 in 0 W/m2
20:50 8.2 °F 0.4 °F 30.23 in West 7 mph 7 mph 70% 0.00 in 0 W/m2
20:55 8.1 °F 0.6 °F 30.23 in WSW 6 mph 7 mph 71% 0.00 in 0 W/m2
21:00 8 °F 0.5 °F 30.23 in WNW 6 mph 7 mph 71% 0.00 in 0 W/m2
21:05 7.9 °F 0.7 °F 30.24 in West 6 mph 7 mph 72% 0.00 in 0 W/m2
21:10 7.9 °F 0.4 °F 30.24 in WSW 6 mph 11 mph 71% 0.00 in 0 W/m2
21:15 7.8 °F 0.6 °F 30.24 in West 7 mph 11 mph 72% 0.00 in 0 W/m2
21:20 7.8 °F 0.6 °F 30.24 in West 5 mph 5 mph 72% 0.00 in 0 W/m2
21:25 7.9 °F 0.7 °F 30.25 in West 4 mph 9 mph 72% 0.00 in 0 W/m2
21:30 8 °F 0.8 °F 30.24 in West 6 mph 6 mph 72% 0.00 in 0 W/m2
21:35 8.1 °F 0.9 °F 30.24 in WSW 6 mph 6 mph 72% 0.00 in 0 W/m2
21:40 8.2 °F 1 °F 30.24 in NW 6 mph 7 mph 72% 0.00 in 0 W/m2
21:45 8.2 °F 0.7 °F 30.24 in West 6 mph 7 mph 71% 0.00 in 0 W/m2
21:50 8.2 °F 0.7 °F 30.25 in West 7 mph 10 mph 71% 0.00 in 0 W/m2
21:55 8.2 °F 0.7 °F 30.25 in West 7 mph 10 mph 71% 0.00 in 0 W/m2
22:00 8 °F 0.2 °F 30.25 in West 7 mph 7 mph 70% 0.00 in 0 W/m2
22:05 7.8 °F 0.3 °F 30.25 in West 6 mph 8 mph 71% 0.00 in 0 W/m2
22:10 7.7 °F 0.2 °F 30.25 in WSW 5 mph 7 mph 71% 0.00 in 0 W/m2
22:15 7.4 °F 0.3 °F 30.25 in West 4 mph 7 mph 72% 0.00 in 0 W/m2
22:20 7.4 °F 0.3 °F 30.24 in West 4 mph 7 mph 72% 0.00 in 0 W/m2
22:25 7.3 °F 0.2 °F 30.25 in WNW 4 mph 7 mph 72% 0.00 in 0 W/m2
22:30 7.2 °F 0.4 °F 30.25 in West 5 mph 8 mph 73% 0.00 in 0 W/m2
22:35 7.3 °F 0.5 °F 30.26 in West 5 mph 8 mph 73% 0.00 in 0 W/m2
22:40 7.3 °F 0.5 °F 30.26 in West 5 mph 9 mph 73% 0.00 in 0 W/m2
22:45 7.2 °F 0.7 °F 30.26 in West 4 mph 9 mph 74% 0.00 in 0 W/m2
22:50 7.2 °F 0.7 °F 30.27 in WSW 4 mph 4 mph 74% 0.00 in 0 W/m2
22:55 7 °F 0.5 °F 30.27 in WSW 4 mph 4 mph 74% 0.00 in 0 W/m2
23:00 6.9 °F 0.4 °F 30.27 in WNW 5 mph 7 mph 74% 0.00 in 0 W/m2
23:05 7 °F 0.5 °F 30.27 in WSW 5 mph 7 mph 74% 0.00 in 0 W/m2
23:10 6.9 °F 0.6 °F 30.27 in West 5 mph 5 mph 75% 0.00 in 0 W/m2
23:15 6.8 °F 0.6 °F 30.27 in West 4 mph 6 mph 75% 0.00 in 0 W/m2
23:20 6.6 °F 0.1 °F 30.27 in West 5 mph 6 mph 74% 0.00 in 0 W/m2
23:25 6.6 °F 0.4 °F 30.27 in West 5 mph 8 mph 75% 0.00 in 0 W/m2
23:30 6.6 °F 0.4 °F 30.27 in WNW 5 mph 5 mph 75% 0.00 in 0 W/m2
23:35 6.6 °F 0.4 °F 30.27 in West 5 mph 5 mph 75% 0.00 in 0 W/m2
23:40 6.5 °F 0.5 °F 30.27 in WSW 4 mph 4 mph 76% 0.00 in 0 W/m2
23:45 6.4 °F 0.2 °F 30.27 in WNW 4 mph 4 mph 75% 0.00 in 0 W/m2
23:50 6.4 °F 0.2 °F 30.27 in West 3 mph 6 mph 75% 0.00 in 0 W/m2
23:55 6.3 °F 0.3 °F 30.28 in West 4 mph 10 mph 76% 0.00 in 0 W/m2
Sand Point, Michigan, USA
Compliments of Weather Underground - 2 mb